Location: ?????
(31.8092°N, 35.2590°E)
Time: 12:34:22
(UTC+00:00)

Cosmos 1455 Rocket - Pass Details

Date: 19 October 2021
Orbit: 604 x 630 km, 82.5° (Epoch: 26 November)

Event Time Altitude Azimuth Distance (km) Brightness Sun altitude
Rises 15:38:40 0° 177° (S) 2,870 6.5 -8.5°
Reaches altitude 10° 15:40:53 10° 174° (S) 1,973 5.7 -8.9°
Maximum altitude 15:45:11 62° 94° (E) 700 3.0 -9.9°
Drops below altitude 10° 15:49:34 10° 14° (NNE) 2,001 5.5 -10.8°
Sets 15:51:50 0° 11° (N) 2,914 6.3 -11.3°
